Stations météo

réclame
Mon MeteoGroup
Kirkwall, Grande-Bretagne (3017): Température de l'air & dewpoint: 12.10.2018 17:00:00 - 18.10.2018 17:00:00 (BST)Kirkwall, Grande-Bretagne (3017): Température de l'air -20cm & Température de l'air -100cm: 12.10.2018 17:00:00 - 18.10.2018 17:00:00 (BST)Kirkwall, Grande-Bretagne (3017): Vitesse du vent & gusts: 12.10.2018 17:00:00 - 18.10.2018 17:00:00 (BST)Kirkwall, Grande-Bretagne (3017): Direction du vent: 12.10.2018 17:00:00 - 18.10.2018 17:00:00 (BST)Kirkwall, Grande-Bretagne (3017): reduced air pressure: 12.10.2018 17:00:00 - 18.10.2018 17:00:00 (BST)Kirkwall, Grande-Bretagne (3017): visibility: 12.10.2018 17:00:00 - 18.10.2018 17:00:00 (BST)Kirkwall, Grande-Bretagne (3017): Ensoleillement: 12.10.2018 17:00:00 - 18.10.2018 17:00:00 (BST)Kirkwall, Grande-Bretagne (3017): Quantités de précipitations: 12.10.2018 17:00:00 - 18.10.2018 17:00:00 (BST)
Date & Time tt [°C] td [°C] tt -20cm [°C] tt -100cm [°C] ff [km/h] ff [knt] fx [km/h] fx [knt] dd ppp [hPa] vv [km] sd [min] rr [mm]
18.10.2018 17:00:00 10,4 6,9 - - 16 9 - - S 1024,3 25 6 0,0
18.10.2018 16:00:00 10,2 6,8 - - 16 9 - - SSW 1024,2 27 0 0,0
18.10.2018 15:00:00 10,3 7,4 - - 24 13 - - SW 1024,8 30 0 0,0
18.10.2018 14:00:00 - - - - - - - - - - 30 - 0,0
18.10.2018 13:00:00 - - - - - - - - - - 35 - 0,0
18.10.2018 12:00:00 - - - - - - - - - - - - -
18.10.2018 11:00:00 - - - - - - - - - - 22 - 0,0
18.10.2018 10:00:00 - - 9,7 10,2 - - - - - - - - 0,2
18.10.2018 09:00:00 9,1 6,5 - - 22 12 - - WSW 1024,7 40 0 0,0
18.10.2018 08:00:00 8,5 7,1 - - 26 14 - - WSW 1024,5 26 0 0,0
18.10.2018 07:00:00 9,0 5,6 - - 22 12 - - WSW 1024,0 27 0 0,0
18.10.2018 06:00:00 8,2 6,6 - - 18 10 - - W 1023,6 19 0 0,0
18.10.2018 05:00:00 7,2 5,2 - - 9 5 - - W 1023,3 16 0 0,0
18.10.2018 04:00:00 8,6 5,3 - - 21 11 - - W 1022,8 24 0 0,0
18.10.2018 03:00:00 8,6 4,6 - - 24 13 48 26 W 1022,5 45 0 0,0
18.10.2018 02:00:00 7,8 5,1 - - 16 9 - - W 1022,4 23 0 0,0
18.10.2018 01:00:00 7,0 5,1 - - 18 10 - - W 1021,9 21 - 0,2
18.10.2018 00:00:00 8,2 6,6 - - 29 16 - - WSW 1021,7 7 0 0,2
17.10.2018 23:00:00 7,9 5,6 - - 18 10 - - W 1021,3 25 0 0,0
17.10.2018 22:00:00 8,1 6,1 - - 16 9 - - WSW 1020,8 24 0 0,2
17.10.2018 21:00:00 7,6 5,6 - - 11 6 - - W 1020,3 16 0 0,0
17.10.2018 20:00:00 7,4 4,7 - - 18 10 - - WSW 1019,3 17 0 0,0
17.10.2018 19:00:00 8,4 5,1 - - 29 16 46 25 W 1018,3 35 0 0,0
17.10.2018 18:00:00 8,9 5,5 - - 21 11 - - W 1017,4 21 18 0,0
17.10.2018 17:00:00 9,2 5,6 - - 22 12 48 26 W 1016,4 25 24 0,0
17.10.2018 16:00:00 - - - - 28 15 46 25 W - 28 18 0,0
17.10.2018 15:00:00 - - - - 29 16 55 30 W - 35 54 2,4
17.10.2018 14:00:00 11,2 6,0 - - 39 21 52 28 WSW 1014,3 35 48 0,0
17.10.2018 13:00:00 11,6 6,3 - - 39 21 52 28 WSW 1013,6 - 54 0,0
17.10.2018 12:00:00 9,3 5,9 - - 31 17 52 28 WSW 1013,2 18 12 0,0
17.10.2018 11:00:00 8,6 5,2 - - 34 18 50 27 SW 1012,2 35 30 0,0
17.10.2018 10:00:00 9,6 6,8 10,0 10,4 29 16 - - SW 1011,2 21 48 0,0
17.10.2018 09:00:00 8,9 6,4 - - 28 15 55 30 SW 1010,2 24 6 0,2
17.10.2018 08:00:00 8,4 6,0 - - 28 15 - - SW 1009,2 20 0 0,0
17.10.2018 07:00:00 8,9 6,2 - - 28 15 - - WSW 1008,2 23 0 0,0
17.10.2018 06:00:00 8,4 7,0 - - 22 12 - - WSW 1007,7 27 0 0,6
17.10.2018 05:00:00 8,7 7,3 - - 22 12 - - SW 1007,2 23 0 0,2
17.10.2018 04:00:00 9,5 8,2 - - 24 13 - - SW 1006,6 23 0 0,0
17.10.2018 03:00:00 9,4 8,7 - - 21 11 - - SW 1006,0 28 0 0,0
17.10.2018 02:00:00 9,5 8,6 - - 26 14 - - W 1005,4 5 0 0,2
17.10.2018 01:00:00 10,2 8,7 - - 18 10 - - S 1004,9 45 - 0,0
17.10.2018 00:00:00 10,3 8,4 - - 21 11 - - S 1004,4 27 0 0,0
16.10.2018 23:00:00 11,0 8,7 - - 22 12 - - S 1004,1 35 0 0,0
16.10.2018 22:00:00 11,0 8,8 - - 24 13 - - S 1003,6 27 0 0,0
16.10.2018 21:00:00 11,4 8,9 - - 24 13 - - S 1003,2 20 0 0,0
16.10.2018 20:00:00 11,8 9,3 - - 26 14 - - S 1002,8 30 0 0,0
16.10.2018 19:00:00 11,8 9,6 - - 26 14 - - S 1002,6 19 0 0,0
16.10.2018 18:00:00 11,8 9,2 - - 28 15 - - S 1002,1 45 30 0,0
16.10.2018 17:00:00 12,6 9,3 - - 29 16 52 28 S 1001,7 18 42 0,0
16.10.2018 16:00:00 12,5 8,7 - - 35 19 52 28 S 1001,8 23 0 0,0
16.10.2018 15:00:00 11,9 8,7 - - 35 19 52 28 S 1001,8 21 0 0,0
16.10.2018 14:00:00 11,4 9,2 - - 37 20 55 30 S 1002,0 22 0 0,0
16.10.2018 13:00:00 11,1 9,2 - - 41 22 61 33 S 1002,8 17 0 0,2
16.10.2018 12:00:00 10,1 8,6 - - 41 22 67 36 SSE 1003,2 18 0 0,2
16.10.2018 11:00:00 10,2 7,4 - - 39 21 61 33 S 1004,6 16 0 0,0
16.10.2018 10:00:00 10,1 7,1 10,0 10,4 41 22 63 34 S 1004,8 29 0 0,0
16.10.2018 09:00:00 10,0 7,3 - - 46 25 68 37 S 1005,9 27 0 0,0
16.10.2018 08:00:00 9,7 7,2 - - 46 25 74 40 SSE 1005,8 22 0 0,0
16.10.2018 07:00:00 9,8 6,1 - - 41 22 55 30 SSE 1006,6 30 0 0,0
16.10.2018 06:00:00 9,7 6,6 - - 29 16 46 25 S 1007,5 30 0 0,0
16.10.2018 05:00:00 9,8 6,9 - - 24 13 - - S 1008,9 27 0 0,0
16.10.2018 04:00:00 9,7 7,2 - - 26 14 - - S 1009,9 30 0 0,0
16.10.2018 03:00:00 10,0 8,0 - - 24 13 - - S 1010,4 30 0 0,0
16.10.2018 02:00:00 10,3 6,8 - - 21 11 - - SSE 1011,0 45 0 0,0
16.10.2018 01:00:00 10,2 8,4 - - 16 9 - - SSE 1011,9 40 - 0,0
16.10.2018 00:00:00 10,1 8,7 - - 18 10 - - SSE 1012,5 50 0 0,0
15.10.2018 23:00:00 9,1 8,2 - - 15 8 - - SSE 1013,3 40 0 0,0
15.10.2018 22:00:00 9,0 7,5 - - 16 9 - - S 1013,4 50 0 0,0
15.10.2018 21:00:00 7,8 6,5 - - 16 9 - - S 1013,7 45 0 0,0
15.10.2018 20:00:00 8,1 7,0 - - 16 9 - - S 1013,8 35 0 0,0
15.10.2018 19:00:00 8,7 7,4 - - 18 10 - - S 1013,6 40 0 0,0
15.10.2018 18:00:00 9,7 6,6 - - 15 8 - - SW 1013,2 45 36 0,0
15.10.2018 17:00:00 11,6 8,0 - - 9 5 - - SW 1013,0 40 12 0,0
15.10.2018 16:00:00 12,0 8,0 - - 15 8 - - SSW 1012,8 50 24 0,0
15.10.2018 15:00:00 12,1 7,2 - - 22 12 - - SSW 1012,7 45 54 0,0
15.10.2018 14:00:00 12,4 7,4 - - 22 12 - - SSW 1012,7 35 54 0,0
15.10.2018 13:00:00 12,5 7,4 - - 24 13 - - SSW 1012,7 35 60 0,0
15.10.2018 12:00:00 12,0 7,0 - - 28 15 - - SSW 1012,7 35 60 0,0
15.10.2018 11:00:00 11,2 7,2 - - 22 12 - - SSW 1012,2 30 60 0,0
15.10.2018 10:00:00 10,5 7,3 10,2 10,4 21 11 - - S 1012,2 35 18 0,0
15.10.2018 09:00:00 8,8 5,8 - - 16 9 - - SSW 1011,7 40 0 0,0
15.10.2018 08:00:00 8,5 5,8 - - 22 12 - - SSW 1011,4 45 0 0,0
15.10.2018 07:00:00 8,4 5,6 - - 21 11 - - SSW 1010,9 45 0 0,0
15.10.2018 06:00:00 8,7 5,7 - - 21 11 - - SSW 1010,6 50 0 0,0
15.10.2018 05:00:00 8,2 5,7 - - 15 8 - - SSW 1010,6 45 0 0,0
15.10.2018 04:00:00 8,5 5,5 - - 16 9 - - SSW 1010,9 50 0 0,0
15.10.2018 03:00:00 8,2 5,4 - - 18 10 - - SW 1011,0 50 0 0,0
15.10.2018 02:00:00 8,3 5,6 - - 21 11 - - SSW 1010,6 45 0 0,0
15.10.2018 01:00:00 8,7 5,9 - - 18 10 - - SSW 1010,4 50 - 0,0
15.10.2018 00:00:00 7,7 6,4 - - 18 10 - - S 1010,3 45 0 0,0
14.10.2018 23:00:00 7,6 6,2 - - 18 10 - - SSW 1010,2 50 0 0,0
14.10.2018 22:00:00 7,2 5,9 - - 16 9 - - S 1009,9 50 0 0,0
14.10.2018 21:00:00 7,6 5,5 - - 22 12 - - S 1009,4 45 0 0,0
14.10.2018 20:00:00 7,2 5,1 - - 21 11 - - SSW 1009,0 45 0 0,0
14.10.2018 19:00:00 7,2 5,7 - - 16 9 - - S 1008,6 30 0 0,0
14.10.2018 18:00:00 7,4 5,0 - - 13 7 - - S 1007,9 45 60 0,0
14.10.2018 17:00:00 10,4 5,5 - - 11 6 - - SSW 1007,4 50 60 0,0
14.10.2018 16:00:00 11,0 6,6 - - 16 9 - - SSW 1007,3 35 60 0,0
14.10.2018 15:00:00 10,2 7,2 - - 13 7 - - SSW 1007,3 45 24 0,0
14.10.2018 14:00:00 10,0 6,6 - - 15 8 - - SSW 1006,8 35 6 0,0
14.10.2018 13:00:00 9,5 7,1 - - 15 8 - - SW 1006,8 45 0 0,0
14.10.2018 12:00:00 9,1 6,9 - - 16 9 - - SW 1006,6 45 0 0,0
14.10.2018 11:00:00 8,8 7,0 - - 16 9 - - SW 1006,0 45 0 0,0
14.10.2018 10:00:00 8,3 6,7 10,4 10,4 15 8 - - WSW 1005,4 35 0 0,0
14.10.2018 09:00:00 7,7 6,8 - - 11 6 - - WSW 1004,7 30 0 0,2
14.10.2018 08:00:00 7,0 6,5 - - 5 3 - - W 1003,7 19 0 0,2
14.10.2018 07:00:00 7,4 6,7 - - 11 6 - - W 1003,1 7 0 0,2
14.10.2018 06:00:00 7,6 6,6 - - 11 6 - - W 1001,7 9 0 0,0
14.10.2018 05:00:00 7,8 6,5 - - 22 12 - - NW 1000,1 26 0 0,0
14.10.2018 04:00:00 7,9 7,1 - - 28 15 46 25 NW 999,0 4,3 0 0,4
14.10.2018 03:00:00 8,2 7,3 - - 34 18 59 32 NNW 997,7 13 0 0,4
14.10.2018 02:00:00 8,5 8,1 - - 41 22 57 31 NNW 996,3 3,7 0 0,4
14.10.2018 01:00:00 8,7 8,4 - - 41 22 57 31 NNW 994,9 3,7 - 1,2
14.10.2018 00:00:00 9,5 9,3 - - 37 20 50 27 N 994,3 4,6 0 1,2
13.10.2018 23:00:00 9,7 9,5 - - 35 19 48 26 N 994,6 3,1 0 1,8
13.10.2018 22:00:00 9,8 9,6 - - 28 15 - - NE 994,8 9 0 2,0
13.10.2018 21:00:00 9,9 9,7 - - 21 11 - - NE 996,3 8 0 1,2
13.10.2018 20:00:00 9,9 9,7 - - 22 12 - - NE 997,1 6 0 4,8
13.10.2018 19:00:00 9,8 9,6 - - 21 11 - - NE 997,2 6 0 1,2
13.10.2018 18:00:00 9,9 9,5 - - 13 7 - - ENE 998,3 8 0 2,0
13.10.2018 17:00:00 10,1 9,7 - - 8 4 - - NE 998,7 9 0 1,2
13.10.2018 16:00:00 10,5 9,9 - - 5 3 - - E 999,5 8 0 0,8
13.10.2018 15:00:00 10,9 10,1 - - 9 5 - - ESE 1000,4 11 0 0,4
13.10.2018 14:00:00 11,1 9,9 - - 9 5 - - SSE 1001,2 11 0 0,4
13.10.2018 13:00:00 11,6 10,3 - - 9 5 - - SSE 1001,8 10 0 0,0
13.10.2018 12:00:00 11,7 9,4 - - 13 7 - - S 1002,2 12 0 0,0
13.10.2018 11:00:00 11,6 8,7 - - 11 6 - - S 1001,7 22 0 0,0
13.10.2018 10:00:00 10,9 8,8 10,5 10,4 15 8 - - S 1001,8 19 0 0,0
13.10.2018 09:00:00 10,3 7,8 - - 21 11 - - S 1001,1 25 0 0,0
13.10.2018 08:00:00 9,9 7,5 - - 21 11 - - S 1000,4 30 0 0,0
13.10.2018 07:00:00 10,8 7,8 - - 26 14 - - SSW 999,0 27 0 0,0
13.10.2018 06:00:00 10,3 7,1 - - 24 13 - - SSW 998,2 24 0 0,0
13.10.2018 05:00:00 10,8 7,2 - - 26 14 - - SSW 997,2 28 0 0,0
13.10.2018 04:00:00 10,9 7,3 - - 26 14 50 27 SSW 995,4 28 0 0,0
13.10.2018 03:00:00 11,8 7,7 - - 39 21 52 28 SSW 993,9 29 0 0,0
13.10.2018 02:00:00 11,9 8,2 - - 35 19 59 32 SSW 992,2 25 0 0,0
13.10.2018 01:00:00 12,1 8,2 - - 44 24 68 37 SSW 990,3 19 - 0,0
13.10.2018 00:00:00 12,0 8,4 - - 41 22 61 33 S 989,1 15 0 0,0
12.10.2018 23:00:00 12,1 8,8 - - 44 24 63 34 S 988,0 20 0 0,0
12.10.2018 22:00:00 12,2 9,7 - - 37 20 59 32 S 987,3 24 0 0,0
12.10.2018 21:00:00 11,8 10,7 - - 35 19 50 27 S 986,6 13 0 0,0
12.10.2018 20:00:00 12,1 11,5 - - 34 18 46 25 S 986,1 10 0 0,0
12.10.2018 19:00:00 12,5 12,2 - - 28 15 46 25 SSE 985,9 7 0 0,8
12.10.2018 18:00:00 12,7 11,9 - - 37 20 61 33 SSE 987,3 6 0 0,0
12.10.2018 17:00:00 12,9 11,7 - - 42 23 61 33 SSE 988,0 7 0 0,0

tt = Température de l'air
td = dewpoint
tt -20cm = Température de l'air -20cm
tt -100cm = Température de l'air -100cm
ff = Vitesse du vent
fx = gusts
dd = Direction du vent
ppp = reduced air pressure
vv = visibility
sd = Ensoleillement
rr = Quantités de précipitations

stations d'obs. à proximité